STARLINK-35120

Last updated on Sun Oct 19 2025 00:02:05 GMT+0000 (Coordinated Universal Time)

1 65659U 25211H 25291.08252628 .00125046 00000+0 22633-2 0 9999 2 65659 97.6021 333.1806 0001867 99.6825 260.4636 15.49202847 5568
UTC large
Height (km)
Speed (km/s)
/
Latitude / Longitude
Inclination (degrees)
Orbital Period (minutes)
Azimuth
Elevation
Range (km)
Doppler Factor

Next 0 passes for location: London (51.5072 / 0.1276)

Sorry there are no passes over London.
STARLINK-35120